Regional Weather Roundup
Issued by NWS

Home | Current Version | Previous Version | Graphics & Text | Print | Product List | Glossary On
Versions: 1 2 3 4 5 6 7 8 9 10 11 12 13 14 15 16 17 18 19 20 21 22 23 24 25 26 27 28 29 30 31 32 33 34 35 36 37 38 39 40 41 42 43 44 45 46 47 48 49 50
000
ASUS43 KFSD 260002
RWRSD

WEATHER ROUNDUP FOR SOUTH DAKOTA
NATIONAL WEATHER SERVICE SIOUX FALLS SD
700 PM CDT THU MAY 25 2017

NOTE: "FAIR" INDICATES FEW OR NO CLOUDS BELOW 12,000 FEET WITH NO
SIGNIFICANT WEATHER AND/OR OBSTRUCTIONS TO VISIBILITY.


SDZ001>005-009-010-012>017-260100-
NORTHWEST AND NORTH CENTRAL SOUTH DAKOTA

CITY           SKY/WX    TMP DP  RH WIND       PRES   REMARKS
BUFFALO          N/A     55  43  63 NW29G37   29.60R
FAITH            N/A     68  40  35 NW29G35   29.58R
MOBRIDGE       MOSUNNY   73  36  25 W13       29.48R
$$

SDZ012>016-024>037-041>051-057-063-072>074-260100-
SOUTHWEST AND SOUTH CENTRAL SOUTH DAKOTA

CITY           SKY/WX    TMP DP  RH WIND       PRES   REMARKS
RAPID CTY ARPT MOSUNNY   66  34  30 N16G22    29.61R
PIERRE         MOSUNNY   74  31  20 NW9       29.52R
CUSTER         MOSUNNY   57  25  29 NW10G18   29.70R
ELLSWORTH AFB  PTSUNNY   66  38  35 N24G32    29.61R
PHILIP         MOSUNNY   72  33  24 N12       29.57R
PINE RIDGE     PTSUNNY   71  43  36 W10       29.61R
WINNER         FAIR      71  43  36 NW7       29.57R
$$

SDZ004>011-016>023-039-040-260100-
NORTHEAST SOUTH DAKOTA

CITY           SKY/WX    TMP DP  RH WIND       PRES   REMARKS
ABERDEEN       CLOUDY    75  48  38 VRB3      29.48R
WATERTOWN      CLOUDY    61  55  81 S10       29.55R
BROOKINGS      CLOUDY    62  55  77 S7        29.56R
SISSETON         N/A     66  55  67 S14       29.51S
$$

SDZ017-020-022-023-036>040-048>070-260100-
SOUTHEAST SOUTH DAKOTA

CITY           SKY/WX    TMP DP  RH WIND       PRES   REMARKS
SIOUX FALLS    PTSUNNY   70  53  54 S13       29.55S
HURON          PTSUNNY   69  55  60 S8        29.51S
CHAMBERLAIN    PTSUNNY   74  47  37 NW3       29.54R
MITCHELL       PTSUNNY   71  54  54 SW5       29.53S
YANKTON        SUNNY     74  51  44 SW6       29.55R
$$

ABBREVIATIONS USED IN REMARKS
   TC - TEMPERATURE IN CELSIUS
  WCI - WIND CHILL INDEX
   HX - HEAT INDEX
  VSB - VISIBILITY





USA.gov is the U.S. government's official web portal to all federal, state and local government web resources and services.